GW3042 Weather Reports


Display with metric or nautical units.
time (UTC)temp
F
wind
direction
speed
MPH
gust
MPH
rain 1hr
in
rain 24hr
in
rain mn
in
humidity
%
barometer
mb
20260503004607 53 28 0.0 0.0 0.00 0.00 0.00 81 1020.9
20260503003053 54 28 0.0 0.0 0.00 0.00 0.00 80 1021.0
20260503001528 54 28 0.0 0.0 0.00 0.00 0.00 79 1021.1
20260503000013 54 28 0.0 0.0 0.00 0.00 0.00 78 1021.2
20260502234614 55 28 0.0 0.0 0.00 0.00 0.00 77 1021.3
20260502233029 55 28 0.0 0.0 0.00 0.00 0.00 77 1021.4
20260502231526 56 28 0.0 0.0 0.00 0.00 0.00 77 1021.3
20260502230017 56 28 0.0 0.0 0.00 0.00 0.00 76 1021.2
20260502224506 56 28 0.0 0.0 0.00 0.00 0.00 75 1021.3
20260502223105 57 28 0.0 0.0 0.00 0.00 0.00 74 1021.3
20260502221549 57 28 0.0 0.0 0.00 0.00 0.00 72 1021.4
20260502220059 58 28 0.0 0.0 0.00 0.00 0.00 71 1021.2
20260502214540 59 28 0.0 0.0 0.00 0.00 0.00 70 1021.2
20260502213038 60 28 0.0 0.0 0.00 0.00 0.00 68 1021.2
20260502211522 61 28 0.0 2.0 0.00 0.00 0.00 67 1021.1
20260502210008 61 28 0.0 2.0 0.00 0.00 0.00 65 1021.0
20260502204604 61 136 3.0 8.0 0.00 0.00 0.00 66 1020.8
20260502203112 61 147 3.0 8.0 0.00 0.00 0.00 66 1020.7
20260502201539 63 158 3.0 7.0 0.00 0.00 0.00 63 1020.6
20260502200024 64 123 3.0 8.0 0.00 0.00 0.00 61 1020.6
20260502194512 64 159 3.0 9.0 0.00 0.00 0.00 60 1020.5
20260502193003 65 139 1.0 5.0 0.00 0.00 0.00 58 1020.5
20260502191554 67 133 0.0 4.0 0.00 0.00 0.00 55 1020.4
20260502190046 69 47 1.0 4.0 0.00 0.00 0.00 49 1020.1
20260502184541 69 115 2.0 7.0 0.00 0.00 0.00 49 1020.1
20260502183028 70 56 1.0 8.0 0.00 0.00 0.00 49 1020.0
20260502181512 70 129 2.0 7.0 0.00 0.00 0.00 48 1019.7
20260502163003 76 349 0.0 4.0 0.00 0.00 0.00 40 1019.2
20260502161553 76 130 0.0 5.0 0.00 0.00 0.00 40 1019.2
20260502151503 76 136 3.0 7.0 0.00 0.00 0.00 42 1019.8
20260502123010 73 141 1.0 8.0 0.00 0.00 0.00 49 1022.0
20260502121601 72 148 1.0 8.0 0.00 0.00 0.00 45 1022.3
20260502114539 72 85 1.0 8.0 0.00 0.00 0.00 45 1022.9
20260502113029 71 43 2.0 8.0 0.00 0.00 0.00 47 1023.2
20260502111521 71 125 1.0 4.0 0.00 0.00 0.00 51 1023.4
20260502110009 71 308 1.0 6.0 0.00 0.00 0.00 47 1023.8
20260502104609 70 47 1.0 5.0 0.00 0.00 0.00 51 1024.2
20260502103048 69 204 1.0 7.0 0.00 0.00 0.00 51 1024.5
20260502101543 69 27 1.0 4.0 0.00 0.00 0.00 55 1024.7
20260502071531 56 154 0.0 0.0 0.00 0.00 0.00 79 1026.8
20260502070035 54 147 0.0 0.0 0.00 0.00 0.00 82 1026.8
20260502064506 52 147 0.0 0.0 0.00 0.00 0.00 87 1027.0
20260502063121 50 147 0.0 0.0 0.00 0.00 0.00 89 1027.2
20260502061549 49 147 0.0 0.0 0.00 0.00 0.00 90 1027.3
20260502060043 47 147 0.0 0.0 0.00 0.00 0.00 90 1027.3
20260502054540 47 147 0.0 0.0 0.00 0.00 0.00 90 1027.4
20260502053018 47 147 0.0 0.0 0.00 0.00 0.00 90 1027.4
20260502051507 46 147 0.0 0.0 0.00 0.00 0.00 89 1027.3
20260502050058 46 147 0.0 0.0 0.00 0.00 0.00 89 1027.2
20260502044547 46 147 0.0 0.0 0.00 0.00 0.00 89 1027.2
20260502043050 46 147 0.0 0.0 0.00 0.00 0.00 89 1027.2
20260502041544 46 147 0.0 0.0 0.00 0.00 0.00 89 1027.0
20260502040030 46 147 0.0 0.0 0.00 0.00 0.00 88 1026.9
20260502034504 46 147 0.0 0.0 0.00 0.00 0.00 88 1026.9
20260502033055 46 147 0.0 0.0 0.00 0.00 0.00 88 1026.7
20260502031545 47 147 0.0 0.0 0.00 0.00 0.00 88 1026.8
20260502030043 47 147 0.0 0.0 0.00 0.00 0.00 88 1026.7
20260502024521 47 147 0.0 0.0 0.00 0.00 0.00 87 1026.7
20260502023021 47 147 0.0 0.0 0.00 0.00 0.00 87 1026.6
20260502021601 48 147 0.0 0.0 0.00 0.00 0.00 86 1026.7
20260502020052 48 147 0.0 0.0 0.00 0.00 0.00 86 1026.6
20260502014541 48 147 0.0 0.0 0.00 0.00 0.00 86 1026.5
20260502013030 49 147 0.0 0.0 0.00 0.00 0.00 86 1026.6
20260502011520 49 147 0.0 0.0 0.00 0.00 0.00 85 1026.6
20260502010006 49 147 0.0 0.0 0.00 0.00 0.00 84 1026.7